This demonstration page uses our WeatherBlox Daily Observations layout. Learn more.

Left ArrowRight Arrow

40.92945, -100.16068

Hourly Observations for October 31, 2015

Temp ( °F °C ) Dew Point ( °F °C ) Humidity (%) Winds ( mph kmh ) Pressure ( in mb ) Visibility ( mi km ) Precip ( " mm )
12:15 am 00:15 Cloudy with Light Rain 41 5.2 41 4.8 97 97 SW 6 9 29.80 1009 10 16 N/A
12:35 am 00:35 Cloudy 41 5.2 41 4.8 97 97 S 6 9 29.80 1009 10 16 N/A
12:55 am 00:55 Cloudy 41 5.2 41 4.8 97 97 SSW 6 9 29.80 1009 7 11 N/A
1:15 am 01:15 Cloudy 41 5.2 41 4.8 97 97 SW 3 6 29.80 1009 10 16 N/A
1:35 am 01:35 Cloudy 41 5.1 40 4.7 97 97 W 5 7 29.80 1009 10 16 N/A
1:55 am 01:55 Cloudy 41 5 40 4.6 97 97 WSW 5 7 29.80 1009 10 16 N/A
2:15 am 02:15 Cloudy 41 5.1 40 4.7 97 97 WSW 3 6 29.77 1008 10 16 N/A
2:35 am 02:35 Cloudy 41 5.1 40 4.7 97 97 WSW 3 6 29.77 1008 10 16 N/A
2:55 am 02:55 Cloudy 41 4.8 40 4.5 98 98 N N/A 29.77 1008 10 16 N/A
3:15 am 03:15 Partly Cloudy 39 4.1 39 3.8 98 98 SW 3 6 29.80 1009 10 16 N/A
3:35 am 03:35 Mostly Cloudy 38 3.4 37 3 97 97 SW 6 9 29.80 1009 7 11 N/A
3:55 am 03:55 Cloudy 40 4.5 39 4 97 97 WSW 6 9 29.77 1008 10 16 N/A
4:15 am 04:15 Cloudy with Mist and Fog 42 5.4 41 5 97 97 W 9 15 29.77 1008 2 3 N/A
4:35 am 04:35 Cloudy with Mist and Fog 42 5.5 41 5.1 97 97 W 13 20 29.77 1008 5 8 N/A
4:55 am 04:55 Cloudy with Mist and Fog 42 5.5 41 5 97 97 W 8 13 29.77 1008 4 6 N/A
5:15 am 05:15 Cloudy with Mist and Fog 42 5.4 41 5 97 97 W 14 22 29.77 1008 4 6 N/A
5:35 am 05:35 Cloudy with Mist and Fog 41 5 40 4.6 97 97 W 10 17 29.77 1008 5 8 N/A
5:55 am 05:55 Cloudy with Mist and Fog 41 4.8 40 4.3 97 97 W 12 19 29.77 1008 5 8 N/A
6:15 am 06:15 Cloudy 41 4.8 40 4.4 97 97 W 9 15 29.77 1008 7 11 N/A
6:35 am 06:35 Cloudy with Mist and Fog 42 5.3 41 4.9 97 97 W 12 19 29.77 1008 5 8 N/A
6:55 am 06:55 Cloudy with Mist and Fog 40 4.7 40 4.3 97 97 WSW 6 9 29.74 1007 4 6 N/A
7:15 am 07:15 Cloudy with Mist and Fog 40 4.7 40 4.3 97 97 WSW 6 9 29.74 1007 4 6 N/A
7:35 am 07:35 Cloudy with Mist and Fog 40 4.7 40 4.3 97 97 W 9 15 29.74 1007 3 5 N/A
7:55 am 07:55 Cloudy with Mist and Fog 40 4.6 39 4.1 97 97 N N/A 29.74 1007 3 5 N/A
8:15 am 08:15 Cloudy with Fog 39 3.7 38 3.3 97 97 N N/A 29.74 1007 0 0 N/A
8:35 am 08:35 Mostly Cloudy with Fog 38 3.1 37 2.7 97 97 N N/A 29.80 1009 0 0 N/A
8:55 am 08:55 Sunny with Mist and Fog 38 3.5 38 3.1 97 97 SW 3 6 29.80 1009 3 4 N/A
9:15 am 09:15 Sunny 41 4.8 40 4.4 97 97 WNW 7 11 29.77 1008 10 16 N/A
9:35 am 09:35 Sunny 42 5.5 41 5 97 97 WNW 9 15 29.80 1009 10 16 N/A
9:55 am 09:55 Sunny 45 7.3 44 6.8 97 97 WNW 15 24 29.80 1009 10 16 N/A
10:15 am 10:15 Sunny 45 7 43 6.2 95 95 WNW 15 24 29.80 1009 10 16 N/A
10:35 am 10:35 Sunny 47 8.2 44 6.6 90 90 WNW 20 31 29.77 1008 10 16 N/A
10:55 am 10:55 Sunny 49 9.4 44 6.7 83 83 WNW 17 28 29.80 1009 10 16 N/A
11:15 am 11:15 Sunny 51 10.5 45 7.1 80 80 WNW 13 20 29.80 1009 10 16 N/A
11:35 am 11:35 Sunny 53 11.8 46 7.7 76 76 WNW 16 26 29.77 1008 10 16 N/A
11:55 am 11:55 Sunny 55 13 47 8.3 73 73 WNW 13 20 29.77 1008 10 16 N/A
12:15 pm 12:15 Sunny 57 13.9 47 8.3 69 69 WNW 12 19 29.77 1008 10 16 N/A
12:35 pm 12:35 Sunny 59 15 48 8.7 66 66 WNW 12 19 29.74 1007 10 16 N/A
12:55 pm 12:55 Sunny 60 15.7 47 8.5 62 62 NW 14 22 29.74 1007 10 16 N/A
1:15 pm 13:15 Sunny 62 16.5 46 8 57 57 WNW 13 20 29.77 1008 10 16 N/A
1:35 pm 13:35 Sunny 63 17.3 46 8 55 55 WNW 13 20 29.74 1007 10 16 N/A
1:55 pm 13:55 Sunny 64 18 45 7 49 49 NW 12 19 29.71 1006 10 16 N/A
2:15 pm 14:15 Sunny 65 18.5 44 6.5 46 46 WNW 9 15 29.71 1006 10 16 N/A
2:35 pm 14:35 Sunny 66 18.8 42 5.4 42 42 W 8 13 29.71 1006 10 16 N/A
2:55 pm 14:55 Sunny 67 19.2 41 4.8 39 39 W 14 22 29.71 1006 10 16 N/A
3:15 pm 15:15 Sunny 67 19.5 40 4.3 37 37 WNW 9 15 29.71 1006 10 16 N/A
3:35 pm 15:35 Sunny 68 19.8 38 3.3 34 34 WNW 13 20 29.71 1006 10 16 N/A
3:55 pm 15:55 Sunny 68 20.1 39 3.7 34 34 NW 12 19 29.71 1006 10 16 N/A
4:15 pm 16:15 Sunny 68 20.2 38 3.1 32 32 WNW 10 17 29.71 1006 10 16 N/A
4:35 pm 16:35 Sunny 68 20 37 3 33 33 NW 9 15 29.71 1006 10 16 N/A
4:55 pm 16:55 Sunny 68 20 39 3.9 35 35 W 7 11 29.71 1006 10 16 N/A
5:15 pm 17:15 Sunny 68 20.2 37 2.9 32 32 W 3 6 29.71 1006 10 16 N/A
5:35 pm 17:35 Sunny 67 19.5 40 4.5 37 37 W 3 6 29.74 1007 10 16 N/A
5:55 pm 17:55 Sunny 67 19.7 39 3.9 35 35 W 3 6 29.74 1007 10 16 N/A
6:15 pm 18:15 Sunny 62 16.8 42 5.5 47 47 W 7 11 29.77 1008 10 16 N/A
6:35 pm 18:35 Sunny 60 15.7 40 4.5 48 48 W 7 11 29.77 1008 10 16 N/A
7:15 pm 19:15 Clear 53 11.5 40 4.5 62 62 SW 6 9 29.80 1009 10 16 N/A
7:35 pm 19:35 Clear 51 10.3 39 4.1 66 66 WSW 5 7 29.83 1010 10 16 N/A
7:55 pm 19:55 Clear 51 10.3 39 3.8 64 64 W 6 9 29.83 1010 10 16 N/A
8:15 pm 20:15 Clear 50 10 38 3.5 64 64 WSW 5 7 29.83 1010 10 16 N/A
8:35 pm 20:35 Clear 50 10.1 38 3.4 63 63 N N/A 29.83 1010 10 16 N/A
8:55 pm 20:55 Clear 52 11.3 38 3.6 59 59 SW 5 7 29.83 1010 10 16 N/A
9:15 pm 21:15 Clear 48 9 38 3.6 69 69 N N/A 29.83 1010 10 16 N/A
9:35 pm 21:35 Clear 44 6.4 38 3.4 81 81 N N/A 29.85 1011 10 16 N/A
9:55 pm 21:55 Clear 44 6.9 38 3.6 80 80 N N/A 29.85 1011 10 16 N/A
10:15 pm 22:15 Clear 42 5.5 37 2.9 84 84 N N/A 29.88 1012 10 16 N/A

Powered by AerisWeather